Terug naar catalogus

ATLAS 5 CENTAUR DEB

LostHEO
NORAD 53515·DEBRIS·🇺🇸 United States

Gelanceerd Sep 17, 2014 vanaf Cape Canaveral Space Force Station

Loading…

Volgende Passages (komende 24 uur)

TLE

VerouderdSource: Space-Track

Epoch: Oct 26, 2022, 12:48 UTC

1 53515U 14055DN  22299.53398694 -.00000107  00000-0  00000+0 0  9993
2 53515  20.7443 293.3793 4805453 252.2306  51.0796  1.70374872  1699

Volg ATLAS 5 CENTAUR DEB in realtime met AllMySat

Download on the App Store